This is the latest recevied weather packets stored in our database for station/object G1SCQ. If no packets are shown the sender has not sent any weather packets the latest 1 day(s).
| Time | Temp. | Humidity | Pressure | Rain* | Wind** | Luminosity | Snow |
|---|---|---|---|---|---|---|---|
| 1778029743 | 7.22° C | 85% | 1013.2 hPa | 0 mm | 0.45 m/s, 312° | 0 W/m² | - |
| 1778029203 | 6.67° C | 85% | 1012.9 hPa | 0 mm | 0.45 m/s, 5° | 0 W/m² | - |
| 1778028843 | 6.67° C | 84% | 1013.4 hPa | 0 mm | 0.45 m/s, 15° | 0 W/m² | - |
| 1778028303 | 6.67° C | 83% | 1013 hPa | 0 mm | 0.45 m/s, 53° | 0 W/m² | - |
| 1778027763 | 6.67° C | 83% | 1013.4 hPa | 0 mm | 0.45 m/s, 288° | 0 W/m² | - |
| 1778027223 | 7.22° C | 84% | 1013.2 hPa | 0 mm | 0.45 m/s, 39° | 0 W/m² | - |
| 1778026683 | 7.22° C | 82% | 1013.5 hPa | 0 mm | 0.45 m/s, 45° | 0 W/m² | - |
| 1778026144 | 7.22° C | 84% | 1013.2 hPa | 0 mm | 0.45 m/s, 96° | 0 W/m² | - |
| 1778025603 | 7.22° C | 85% | 1013.4 hPa | 0 mm | 0.45 m/s, 112° | 0 W/m² | - |
| 1778025243 | 7.22° C | 85% | 1013.4 hPa | 0 mm | 0.45 m/s, 61° | 0 W/m² | - |
| 1778024703 | 7.22° C | 85% | 1013.6 hPa | 0 mm | 0.45 m/s, 58° | 0 W/m² | - |
| 1778024163 | 7.78° C | 87% | 1013.7 hPa | 0 mm | 0.89 m/s, 48° | 0 W/m² | - |
| 1778023624 | 7.22° C | 87% | 1013.5 hPa | 0 mm | 0.45 m/s, 36° | 0 W/m² | - |
| 1778023083 | 7.78° C | 87% | 1013.6 hPa | 0 mm | 0.45 m/s, 66° | 0 W/m² | - |
| 1778022543 | 7.78° C | 87% | 1013.7 hPa | 0 mm | 0.45 m/s, 52° | 0 W/m² | - |
| 1778022003 | 7.78° C | 86% | 1013.7 hPa | 0 mm | 0.45 m/s, 49° | 0 W/m² | - |
| 1778021643 | 8.33° C | 86% | 1013.8 hPa | 0 mm | 0.45 m/s, 41° | 0 W/m² | - |
| 1778021103 | 8.33° C | 85% | 1013.7 hPa | 0 mm | 0.45 m/s, 81° | 0 W/m² | - |
| 1778020563 | 7.78° C | 84% | 1013.7 hPa | 0 mm | 0.45 m/s, 44° | 0 W/m² | - |
| 1778020023 | 7.78° C | 84% | 1013.8 hPa | 0 mm | 0.45 m/s, 41° | 0 W/m² | - |
| 1778019483 | 8.33° C | 83% | 1014 hPa | 0 mm | 0.45 m/s, 65° | 0 W/m² | - |
| 1778018943 | 7.78° C | 83% | 1013.9 hPa | 0 mm | 0.45 m/s, 69° | 0 W/m² | - |
| 1778018403 | 8.33° C | 83% | 1013.8 hPa | 0 mm | 0.45 m/s, 71° | 0 W/m² | - |
| 1778018043 | 8.33° C | 84% | 1014 hPa | 0 mm | 0.45 m/s, 51° | 0 W/m² | - |
| 1778017503 | 8.33° C | 83% | 1013.9 hPa | 0 mm | 0.45 m/s, 65° | 0 W/m² | - |
* Rain latest hour (hover to see other rain measurements)
** Current wind speed in m/s (hover to see current wind gust speed)